Hourly Data Report for February 01, 2017

All times are specified in Local Standard Time (LST). Add 1 hour to adjust for Daylight Saving Time where and when it is observed.

COLVILLE LAKE
NORTHWEST TERRITORIES

67°01'17.040" N
126°07'23.070" W
271.00 m
2200824
71055
WFX

Download Data

Hourly Data (February 2017)
Hourly Data Report for February 1, 2017
Temp Definition
°C
Dew Point Temp Definition
°C
Rel Hum Definition
%
Wind Dir Definition
10's deg

Wind Spd Definition
km/h
Visibility Definition
km
Stn Press Definition
kPa
Hmdx Definition


Wind Chill Definition


Weather Definition


TIME
00:00 -16.0 -17.8 86 20 23   99.32   -26 LegendNANA
01:00 -16.0 -17.8 86 20 18   99.34   -25 LegendNANA
02:00 -15.0 -16.7 87 20 20   99.39   -24 LegendNANA
03:00 -15.7 -17.4 86 21 20   99.47   -25 LegendNANA
04:00 -15.7 -17.4 86 20 22   99.50   -25 LegendNANA
05:00 -15.2 -16.9 87 19 16   99.52   -23 LegendNANA
06:00 -15.3 -17.0 87 20 17   99.53   -24 LegendNANA
07:00 -15.7 -17.5 87 19 12   99.57   -23 LegendNANA
08:00 -14.8 -16.4 87 19 14   99.62   -22 LegendNANA
09:00 -15.8 -17.6 86 19 15   99.64   -24 LegendNANA
10:00 -15.8 -17.5 87 19 9   99.66   -22 LegendNANA
11:00 -14.4 -16.0 88 19 16   99.69   -22 LegendNANA
12:00 -15.4 -17.2 86 20 18   99.77   -24 LegendNANA
13:00 -14.3 -16.0 87 20 15   99.83   -22 LegendNANA
14:00 -13.2 -14.8 88 19 13   99.90   -20 LegendNANA
15:00 -11.6 -13.1 89 20 6   99.96   -15 LegendNANA
16:00 -11.8 -13.2 89 25 7   100.02   -16 LegendNANA
17:00 -8.6 -9.7 92 33 12   100.09   -14 LegendNANA
18:00 -8.9 -10.0 91 30 9   100.09   -14 LegendNANA
19:00 -9.9 -11.3 90 24 9   100.14   -15 LegendNANA
20:00 -10.5 -11.8 91 23 7   100.13   -15 LegendNANA
21:00 -9.8 -11.0 91 25 11   100.11   -15 LegendNANA
22:00 -10.2 -11.5 91 25 14   100.07   -17 LegendNANA
23:00 -10.1 -11.4 91 25 16   100.05   -17 LegendNANA

Notes on Data Quality.

Legend

  • E = Estimated
  • M = Missing
  • NA = Not Available
  • ‡ = Partner data that is not subject to review by the National Climate Archives
Date modified: